| time (UTC) | temp F | wind direction | speed knots | gust knots | rain 1hr in | rain 24hr in | rain mn in | humidity % | barometer mb |
| 20260906113007 | 70 | 44 | 1.7 | 4.3 | 0.00 | 0.00 | 0.00 | 83 | 1017.0 |
| 20260906111504 | 70 | 24 | 0.0 | 0.9 | 0.00 | 0.00 | 0.00 | 83 | 1016.8 |
| 20260906110004 | 70 | 21 | 0.0 | 2.6 | 0.00 | 0.00 | 0.00 | 83 | 1016.8 |
| 20260906103057 | 71 | 23 | 0.9 | 2.6 | 0.00 | 0.00 | 0.00 | 82 | 1016.3 |
| 20260906101558 | 71 | 23 | 0.0 | 2.6 | 0.00 | 0.00 | 0.00 | 81 | 1016.2 |
| 20260906100053 | 71 | 49 | 0.9 | 3.5 | 0.00 | 0.00 | 0.00 | 81 | 1016.2 |
| 20260906094552 | 72 | 37 | 0.0 | 2.6 | 0.00 | 0.00 | 0.00 | 81 | 1016.2 |
| 20260906093057 | 72 | 67 | 0.9 | 4.3 | 0.00 | 0.00 | 0.00 | 80 | 1016.0 |
| 20260906091552 | 72 | 18 | 0.9 | 3.5 | 0.00 | 0.00 | 0.00 | 80 | 1016.1 |
| 20260906090052 | 72 | 25 | 0.9 | 4.3 | 0.00 | 0.00 | 0.00 | 81 | 1016.0 |
| 20260906084555 | 72 | 26 | 0.0 | 2.6 | 0.00 | 0.00 | 0.00 | 81 | 1016.2 |
| 20260906083049 | 72 | 86 | 0.0 | 5.2 | 0.00 | 0.00 | 0.00 | 81 | 1016.0 |
| 20260906081548 | 72 | 25 | 0.0 | 3.5 | 0.00 | 0.00 | 0.00 | 81 | 1016.0 |
| 20260906080054 | 72 | 23 | 0.0 | 4.3 | 0.00 | 0.00 | 0.00 | 82 | 1015.9 |
| 20260906074552 | 72 | 30 | 1.7 | 3.5 | 0.00 | 0.00 | 0.00 | 82 | 1016.0 |
| 20260906073046 | 72 | 38 | 1.7 | 3.5 | 0.00 | 0.00 | 0.00 | 82 | 1016.0 |
| 20260906071545 | 72 | 6 | 0.9 | 3.5 | 0.00 | 0.00 | 0.00 | 82 | 1016.2 |
| 20260906070044 | 72 | 25 | 2.6 | 5.2 | 0.00 | 0.00 | 0.00 | 82 | 1016.1 |
| 20260906064544 | 72 | 40 | 0.9 | 4.3 | 0.00 | 0.00 | 0.00 | 82 | 1016.1 |
| 20260906063043 | 72 | 27 | 0.0 | 3.5 | 0.00 | 0.00 | 0.00 | 83 | 1016.2 |
| 20260906061543 | 72 | 25 | 1.7 | 3.5 | 0.00 | 0.00 | 0.00 | 83 | 1016.2 |
| 20260906060055 | 72 | 24 | 1.7 | 4.3 | 0.00 | 0.00 | 0.00 | 83 | 1016.2 |
| 20260906054541 | 72 | 18 | 1.7 | 4.3 | 0.00 | 0.00 | 0.00 | 84 | 1016.1 |
| 20260906053039 | 72 | 32 | 0.0 | 5.2 | 0.00 | 0.00 | 0.00 | 84 | 1016.1 |
| 20260906051542 | 72 | 28 | 2.6 | 6.1 | 0.00 | 0.00 | 0.00 | 84 | 1015.7 |
| 20260906050035 | 72 | 43 | 2.6 | 4.3 | 0.00 | 0.00 | 0.00 | 84 | 1015.7 |
| 20260906044535 | 72 | 28 | 0.9 | 6.1 | 0.00 | 0.00 | 0.00 | 84 | 1015.7 |
| 20260906043031 | 72 | 28 | 5.2 | 9.6 | 0.00 | 0.00 | 0.00 | 83 | 1015.4 |
| 20260906041539 | 72 | 42 | 1.7 | 9.6 | 0.00 | 0.00 | 0.00 | 83 | 1015.2 |
| 20260906040028 | 72 | 10 | 3.5 | 9.6 | 0.00 | 0.00 | 0.00 | 83 | 1015.1 |
| 20260906034531 | 72 | 46 | 4.3 | 7.8 | 0.00 | 0.00 | 0.00 | 82 | 1015.1 |
| 20260906033031 | 72 | 6 | 2.6 | 7.0 | 0.00 | 0.00 | 0.00 | 82 | 1015.1 |
| 20260906031527 | 72 | 42 | 4.3 | 10.4 | 0.00 | 0.00 | 0.00 | 82 | 1015.1 |
| 20260906030025 | 72 | 37 | 3.5 | 12.2 | 0.00 | 0.00 | 0.00 | 82 | 1015.1 |
| 20260906024524 | 72 | 27 | 6.1 | 11.3 | 0.00 | 0.00 | 0.00 | 82 | 1015.0 |
| 20260906023024 | 72 | 79 | 5.2 | 10.4 | 0.00 | 0.00 | 0.00 | 81 | 1014.9 |
| 20260906021524 | 72 | 18 | 3.5 | 10.4 | 0.00 | 0.00 | 0.00 | 81 | 1015.0 |
| 20260906020023 | 72 | 340 | 5.2 | 11.3 | 0.00 | 0.00 | 0.00 | 80 | 1015.1 |
| 20260906014525 | 72 | 359 | 4.3 | 9.6 | 0.00 | 0.00 | 0.00 | 80 | 1015.2 |
| 20260906013021 | 72 | 23 | 4.3 | 11.3 | 0.00 | 0.00 | 0.00 | 81 | 1015.1 |
| 20260906011520 | 72 | 4 | 5.2 | 12.2 | 0.00 | 0.00 | 0.00 | 81 | 1015.0 |
| 20260906010019 | 72 | 37 | 3.5 | 11.3 | 0.00 | 0.00 | 0.00 | 81 | 1014.8 |
| 20260906004619 | 72 | 38 | 3.5 | 11.3 | 0.00 | 0.00 | 0.00 | 81 | 1014.6 |
| 20260906003016 | 72 | 47 | 7.0 | 12.2 | 0.00 | 0.00 | 0.00 | 81 | 1014.5 |
| 20260906001516 | 72 | 17 | 7.0 | 13.9 | 0.00 | 0.00 | 0.00 | 81 | 1014.5 |
| 20260906000014 | 72 | 36 | 7.8 | 13.9 | 0.00 | 0.00 | 0.00 | 81 | 1014.5 |
| 20260905234513 | 72 | 18 | 7.0 | 13.9 | 0.00 | 0.00 | 0.00 | 81 | 1014.5 |
| 20260905233010 | 72 | 37 | 4.3 | 13.0 | 0.00 | 0.00 | 0.00 | 81 | 1014.5 |
| 20260905231507 | 72 | 32 | 7.0 | 13.0 | 0.00 | 0.00 | 0.00 | 81 | 1014.4 |
| 20260905230004 | 73 | 17 | 7.0 | 12.2 | 0.00 | 0.00 | 0.00 | 81 | 1014.2 |
| 20260905224508 | 74 | 34 | 6.1 | 16.5 | 0.00 | 0.00 | 0.00 | 80 | 1014.2 |
| 20260905223001 | 75 | 17 | 4.3 | 13.0 | 0.00 | 0.00 | 0.00 | 79 | 1014.2 |
| 20260905221600 | 75 | 23 | 3.5 | 10.4 | 0.00 | 0.00 | 0.00 | 78 | 1014.1 |
| 20260905220100 | 76 | 359 | 7.8 | 13.9 | 0.00 | 0.00 | 0.00 | 78 | 1014.0 |
| 20260905214600 | 77 | 358 | 4.3 | 11.3 | 0.00 | 0.00 | 0.00 | 77 | 1013.9 |
| 20260905213058 | 78 | 48 | 7.0 | 12.2 | 0.00 | 0.00 | 0.00 | 75 | 1013.5 |
| 20260905211557 | 79 | 11 | 1.7 | 13.0 | 0.00 | 0.00 | 0.00 | 75 | 1013.6 |
| 20260905210056 | 78 | 40 | 3.5 | 13.9 | 0.00 | 0.00 | 0.00 | 75 | 1013.6 |
| 20260905204555 | 79 | 337 | 4.3 | 12.2 | 0.00 | 0.00 | 0.00 | 72 | 1013.5 |
| 20260905203055 | 79 | 27 | 5.2 | 9.6 | 0.00 | 0.00 | 0.00 | 72 | 1013.6 |
| 20260905201606 | 78 | 40 | 6.1 | 10.4 | 0.00 | 0.00 | 0.00 | 73 | 1013.6 |
| 20260905200053 | 78 | 323 | 3.5 | 12.2 | 0.00 | 0.00 | 0.00 | 74 | 1013.7 |
| 20260905194552 | 78 | 9 | 7.0 | 13.0 | 0.00 | 0.00 | 0.00 | 73 | 1013.8 |
| 20260905193052 | 78 | 27 | 6.1 | 13.9 | 0.00 | 0.00 | 0.00 | 74 | 1013.9 |
| 20260905191553 | 78 | 345 | 7.8 | 11.3 | 0.00 | 0.00 | 0.00 | 74 | 1014.0 |
| 20260905190104 | 78 | 18 | 3.5 | 11.3 | 0.00 | 0.00 | 0.00 | 75 | 1014.0 |
| 20260905184605 | 78 | 357 | 7.0 | 12.2 | 0.00 | 0.00 | 0.00 | 75 | 1014.2 |
| 20260905183049 | 78 | 54 | 4.3 | 10.4 | 0.00 | 0.00 | 0.00 | 75 | 1014.0 |
| 20260905181550 | 78 | 9 | 6.1 | 10.4 | 0.00 | 0.00 | 0.00 | 75 | 1014.1 |
| 20260905180047 | 77 | 22 | 5.2 | 10.4 | 0.00 | 0.00 | 0.00 | 77 | 1014.1 |
| 20260905174554 | 77 | 11 | 4.3 | 11.3 | 0.00 | 0.00 | 0.00 | 77 | 1014.0 |
| 20260905173046 | 77 | 13 | 6.1 | 13.0 | 0.00 | 0.00 | 0.00 | 76 | 1014.0 |
| 20260905171545 | 78 | 6 | 5.2 | 9.6 | 0.00 | 0.00 | 0.00 | 75 | 1014.1 |
| 20260905170045 | 78 | 143 | 5.2 | 12.2 | 0.00 | 0.00 | 0.00 | 76 | 1014.0 |
| 20260905164546 | 78 | 27 | 4.3 | 10.4 | 0.00 | 0.00 | 0.00 | 75 | 1014.2 |
| 20260905163044 | 79 | 73 | 5.2 | 10.4 | 0.00 | 0.00 | 0.00 | 75 | 1014.2 |
| 20260905161543 | 79 | 308 | 7.0 | 10.4 | 0.00 | 0.00 | 0.00 | 75 | 1014.1 |
| 20260905160040 | 78 | 60 | 4.3 | 10.4 | 0.00 | 0.00 | 0.00 | 76 | 1013.9 |
| 20260905154538 | 78 | 358 | 2.6 | 10.4 | 0.00 | 0.00 | 0.00 | 77 | 1013.8 |
| 20260905153037 | 77 | 342 | 6.1 | 11.3 | 0.00 | 0.00 | 0.00 | 78 | 1013.7 |
| 20260905151536 | 78 | 48 | 7.8 | 12.2 | 0.00 | 0.00 | 0.00 | 77 | 1013.6 |
| 20260905150035 | 78 | 34 | 6.1 | 12.2 | 0.00 | 0.00 | 0.00 | 77 | 1013.5 |
| 20260905144541 | 77 | 340 | 5.2 | 10.4 | 0.00 | 0.00 | 0.00 | 79 | 1013.3 |
| 20260905143034 | 76 | 356 | 6.1 | 12.2 | 0.00 | 0.00 | 0.00 | 80 | 1013.3 |
| 20260905141540 | 76 | 30 | 5.2 | 11.3 | 0.00 | 0.00 | 0.00 | 81 | 1013.2 |
| 20260905140031 | 76 | 47 | 6.1 | 11.3 | 0.00 | 0.00 | 0.00 | 82 | 1013.2 |
| 20260905134535 | 76 | 22 | 4.3 | 9.6 | 0.00 | 0.00 | 0.00 | 81 | 1013.1 |
| 20260905133030 | 76 | 19 | 3.5 | 10.4 | 0.00 | 0.00 | 0.00 | 82 | 1013.4 |
| 20260905131543 | 75 | 35 | 0.0 | 7.8 | 0.00 | 0.00 | 0.00 | 86 | 1013.1 |
| 20260905130028 | 74 | 340 | 2.6 | 6.1 | 0.00 | 0.00 | 0.00 | 86 | 1013.0 |
| 20260905124536 | 74 | 36 | 1.7 | 6.1 | 0.00 | 0.00 | 0.00 | 88 | 1012.7 |
| 20260905123023 | 73 | 360 | 1.7 | 3.5 | 0.00 | 0.00 | 0.00 | 89 | 1012.7 |
| 20260905121529 | 73 | 22 | 1.7 | 6.1 | 0.00 | 0.00 | 0.00 | 89 | 1012.5 |
| 20260905120018 | 73 | 328 | 2.6 | 7.8 | 0.00 | 0.00 | 0.00 | 89 | 1012.2 |
| 20260905114534 | 73 | 24 | 0.0 | 4.3 | 0.00 | 0.00 | 0.00 | 88 | 1012.0 |